Pardee Reservoir Weather Center

Moon Phase Calendar



Pardee Reservoir Water Level
Online Cameras

 


      

Current Conditions in Valley Springs
6/18/2024 4:01:29 AM

55°F
Feels Like 51
Clear
Humidity
19%
Pressure
29.8"
Wind
3.5 mph (E)
Dew Point
16°F
UV Index
0/10 (Low)
Visibility
6 mi

Hourly Forecast

Date & Time Tue, Jun 18
4:00 AM
Tue, Jun 18
5:00 AM
Tue, Jun 18
6:00 AM
Tue, Jun 18
7:00 AM
Tue, Jun 18
8:00 AM
Tue, Jun 18
9:00 AM
Tue, Jun 18
10:00 AM
Tue, Jun 18
11:00 AM
Tue, Jun 18
12:00 PM
Tue, Jun 18
1:00 PM
Tue, Jun 18
2:00 PM
Tue, Jun 18
3:00 PM
Tue, Jun 18
4:00 PM
Tue, Jun 18
5:00 PM
Tue, Jun 18
6:00 PM
Tue, Jun 18
7:00 PM
Tue, Jun 18
8:00 PM
Tue, Jun 18
9:00 PM
Tue, Jun 18
10:00 PM
Tue, Jun 18
11:00 PM
Wed, Jun 19
12:00 AM
Wed, Jun 19
1:00 AM
Wed, Jun 19
2:00 AM
Wed, Jun 19
3:00 AM
Wed, Jun 19
4:00 AM
Wed, Jun 19
5:00 AM
Wed, Jun 19
6:00 AM
Wed, Jun 19
7:00 AM
Wed, Jun 19
8:00 AM
Wed, Jun 19
9:00 AM
Wed, Jun 19
10:00 AM
Wed, Jun 19
11:00 AM
Wed, Jun 19
12:00 PM
Wed, Jun 19
1:00 PM
Wed, Jun 19
2:00 PM
Wed, Jun 19
3:00 PM
Wed, Jun 19
4:00 PM
Wed, Jun 19
5:00 PM
Wed, Jun 19
6:00 PM
Wed, Jun 19
7:00 PM
Wed, Jun 19
8:00 PM
Wed, Jun 19
9:00 PM
Wed, Jun 19
10:00 PM
Wed, Jun 19
11:00 PM
Thu, Jun 20
12:00 AM
Thu, Jun 20
1:00 AM
Thu, Jun 20
2:00 AM
Thu, Jun 20
3:00 AM
Condition
Clear

Clear

Clear

Clear

Clear

Clear

Clear

Clear

Clouds

Clouds

Clouds

Clouds

Clouds

Clouds

Clouds

Clouds

Clouds

Clouds

Clouds

Clouds

Clouds

Clouds

Clouds

Clouds

Clear

Clear

Clear

Clear

Clear

Clear

Clear

Clear

Clear

Clear

Clouds

Clouds

Clouds

Clouds

Clouds

Clouds

Clouds

Clouds

Clouds

Clouds

Clouds

Clouds

Clouds

Clouds
Temperature 55°F55°F54°F57°F63°F71°F76°F80°F83°F86°F87°F88°F88°F87°F86°F84°F75°F66°F63°F62°F60°F58°F57°F56°F55°F54°F54°F58°F64°F68°F73°F77°F81°F85°F87°F89°F89°F89°F86°F81°F71°F63°F62°F61°F60°F59°F57°F56°F
Feels Like 51°F51°F50°F53°F60°F69°F74°F80°F80°F82°F83°F84°F84°F84°F83°F81°F73°F64°F60°F59°F58°F56°F54°F53°F52°F51°F51°F56°F62°F66°F71°F75°F79°F82°F83°F85°F85°F85°F83°F79°F69°F61°F60°F59°F58°F56°F55°F54°F
Cloudiness 0%0%0%0%0%2%3%8%78%65%77%83%86%89%100%77%54%42%52%53%16%17%15%12%9%8%0%2%3%4%3%3%5%5%32%30%41%46%100%100%100%100%100%100%100%99%68%52%
Visibility 6 mi6 mi6 mi6 mi6 mi6 mi6 mi6 mi6 mi6 mi6 mi6 mi6 mi6 mi6 mi6 mi6 mi6 mi6 mi6 mi6 mi6 mi6 mi6 mi6 mi6 mi6 mi6 mi6 mi6 mi6 mi6 mi6 mi6 mi6 mi6 mi6 mi6 mi6 mi6 mi6 mi6 mi6 mi6 mi6 mi6 mi6 mi6 mi
Precipitation 0%0%0%0%0%0%0%0%0%0%0%0%0%0%0%0%0%0%0%0%0%0%0%0%0%0%0%0%0%0%0%0%0%0%0%0%0%0%0%0%0%0%0%0%0%0%0%0%
Humidity 19%18%18%20%16%14%13%12%11%10%9%8%7%8%8%12%17%26%31%33%33%34%35%35%36%37%39%38%33%29%24%21%18%15%14%13%12%12%14%19%31%43%45%45%46%46%48%53%
Dew Point 16°F14°F14°F18°F18°F19°F21°F23°F24°F23°F21°F19°F18°F18°F18°F26°F28°F30°F32°F32°F31°F30°F29°F28°F28°F27°F28°F32°F34°F35°F34°F34°F33°F32°F31°F31°F30°F30°F31°F35°F39°F40°F40°F39°F39°F38°F38°F38°F
Pressure 29.8"29.8"29.8"29.8"29.8"29.8"29.8"29.8"29.8"29.77"29.77"29.74"29.74"29.71"29.71"29.71"29.74"29.77"29.8"29.8"29.8"29.8"29.8"29.8"29.8"29.8"29.8"29.83"29.83"29.83"29.83"29.83"29.8"29.8"29.77"29.74"29.74"29.71"29.71"29.74"29.77"29.8"29.8"29.8"29.8"29.8"29.77"29.77"
Wind Speed 3.5 mph3.7 mph3.9 mph2.6 mph2.4 mph4.2 mph4.9 mph5.2 mph5.7 mph5.8 mph5.9 mph5.9 mph6 mph5.4 mph4.3 mph3.5 mph4.7 mph3.5 mph4.5 mph4.4 mph3.4 mph2.2 mph2.2 mph3 mph2.9 mph2.7 mph3.2 mph3.4 mph4.2 mph4.9 mph5.9 mph6.7 mph6.2 mph6.1 mph6.4 mph6 mph5.9 mph7.2 mph9.4 mph10 mph7.4 mph3.7 mph4.3 mph4 mph3.8 mph3.4 mph3.4 mph4.3 mph
Wind
Direction
90°
E
101°
E
94°
E
116°
ESE
170°
S
197°
SSW
232°
SW
243°
WSW
261°
W
278°
W
282°
WNW
284°
WNW
284°
WNW
290°
WNW
304°
NW
321°
NW
299°
WNW
303°
WNW
50°
NE
49°
NE
49°
NE
51°
NE
41°
NE
54°
NE
33°
NNE
25°
NNE
11°
N

N
332°
NNW
306°
NW
287°
WNW
277°
W
278°
W
276°
W
275°
W
271°
W
272°
W
277°
W
277°
W
275°
W
284°
WNW

N
27°
NNE

N
15°
NNE
20°
NNE
15°
NNE

N

Daily Forecast

Date High Low Precip. Humidity
Today
Jun 18

Clouds
88 °F
54 °F
0%
10%
Wednesday
Jun 19

Clear
89 °F
54 °F
0%
15%
Thursday
Jun 20

Clear
92 °F
54 °F
0%
19%
Friday
Jun 21

Clear
99 °F
57 °F
0%
15%
Saturday
Jun 22

Clear
106 °F
69 °F
0%
11%
Sunday
Jun 23

Clear
101 °F
66 °F
0%
11%
Monday
Jun 24

Clear
101 °F
62 °F
0%
12%
Tuesday
Jun 25

Clear
95 °F
58 °F
0%
18%
Wednesday
Jun 26

Clear
88 °F
53 °F
0%
20%
Thursday
Jun 27

Clear
98 °F
55 °F
0%
16%
Friday
Jun 28

Clear
102 °F
64 °F
0%
14%
Saturday
Jun 29

Clear
93 °F
58 °F
0%
19%
Sunday
Jun 30

Clear
93 °F
53 °F
0%
21%
Monday
Jul 1

Clear
97 °F
59 °F
0%
14%
Tuesday
Jul 2

Clear
99 °F
59 °F
0%
12%
Wednesday
Jul 3

Clear
104 °F
57 °F
0%
10%

Temperature 8-14 Day Outlook



Precipitation 8-14 Day Outlook






About Us
Contact Us
Site Map
Search Site
Advertise With Us
   
PardeeReservoir.LakesOnline.com
THE PARDEE RESERVOIR WEBSITE

Copyright 2024, Lakes Online
Privacy    |    Legal